STARLINK-1413, 45689

Orbit data source: Space-Track

STARLINK-1413, 45689 is a payload satellite owned by SpaceX/Seattle (US) in LEO that was launched on Thu, 04 Jun 2020 UTC via an FALCON 9 launch vehicle from the Air Force Eastern Test Range (AFETR). Payload-class satellites include a variety of spacecraft equipped with specific instruments for various scientific and technological missions. These include communications satellites like Starlink; space stations such as the ISS; scientific satellites like the Hubble; Earth observation satellites from companies like Planet Labs, Umbra, and HawkEye 360; GPS; miniature CubeSats for education and research; and military/defense satellites.

Loading next visibility...
Identifier
45689, 2020-035AJ
Orbit
LEO
Last TLE update
6 hours ago
Origin
Manufacturer
SpaceX/Seattle
Mission
Operational Commercial Communications
Bus & Motor
STARLINK, Unknown motor
Mass
260 kg wet, ~248 kg dry
Launch date (UTC)
2020-06-04 (5 years ago)
Launch vehicle
FALCON 9
Launch site
Air Force Eastern Test Range (AFETR)
Object type
Payload
Rocket body
Debris
Shape & HBR
Box + 1 Pan, 8.86 m
Radar Cross Section
13.562 m², Large (>1 m²)

Expand to show TLE details & history

TLE from 6 hours ago
0 STARLINK-1413
1 45689U 20035AJ  25182.16631751  .00000475  00000-0  50803-4 0  9996
2 45689  53.0552 105.7484 0001560  94.6501 265.4666 15.06398494280554
Epoch: 2025-07-01T03:59Z
TLE epoch observation values (Epoch: 2025-07-01T03:59:29.832Z)
Latitude
-0.00005°
Longitude
126.40839°
Altitude
548.181 km
Speed
7.589 km/s
True Right ascension
07h 02m 59s
True Declination
0° 00' 00"
Sunlit
Object was in daylight at epoch
Visualization orbit readout
Latitude
-24.2909°
Longitude
-34.93136°
Altitude
554.682 km
Speed
7.584 km/s
Apparent Right ascension
17h 39m 39s
Apparent Declination
-73° 13' 59"
Sunlit
Object is in full shadow
Visualization observer readout
Local Sidereal Time
21:20:19
Azimuth
195.741° SSW
Elevation
-29.21°
Doppler factor
1
Orbital elements
Apogee altitude
548.567 km
Perigee altitude
546.406 km
Semi-major axis
6,925.624 km
Eccentricity
0.00016
Inclination
53.0552°
RAAN
105.7484°
Arg. of periapsis
94.6501°
True anomaly
Unknown
Mean anomaly
265.4666°
Eccentric anomaly
Unknown
Mean motion
3.76578 °/min
Orbital period
95.6 mins
BSTAR
0.000050803
Loading maneuver chart data...
Loading SW <> Apogee altitude chart data...

STARLINK-1413 Visibility forecast

Observer location: undefined°, undefined°

Span
Click to sort rows by Start time (UTC) header in descending order
Start Az.
Max El. time (UTC)
Max El. Az.
Max El.
End time (UTC)
End Az.
6 mins2025-07-01 21:42:00.167Z228.886° WSW2025-07-01 21:45:00.167Z51.15° ENE43.153°2025-07-01 21:48:00.167Z50.354° ENE
4 mins2025-07-01 23:23:00.167Z308.27° NW2025-07-01 23:25:00.167Z348.64° N19.513°2025-07-01 23:27:00.167Z21.912° NNE
5 mins2025-07-02 02:44:00.167Z342.933° N2025-07-02 02:46:00.167Z19.142° NNE19.531°2025-07-02 02:49:00.167Z69.189° E
6 mins2025-07-02 04:24:00.167Z311.246° NW2025-07-02 04:26:00.167Z339.354° N44.882°2025-07-02 04:30:00.167Z129.904° SE
|